Location: Unspecified
(42.2730°N, 83.7130°W)
Time: 13:08:11
(UTC+00:00)

Cosmos 967 Rocket - Pass Details

Date: 14 December 2025
Orbit: 941 x 995 km, 65.8° (Epoch: 17 January)

Event Time Altitude Azimuth Distance (km) Brightness Sun altitude
Rises 23:28:55 0° 204° (SSW) 3,628 8.1 -15.2°
Reaches altitude 10° 23:31:27 10° 202° (SSW) 2,694 7.4 -15.7°
Maximum altitude 23:37:44 74° 119° (ESE) 1,013 4.4 -16.8°
Enters shadow 23:42:25 19° 37° (NE) 2,131 5.8 -17.6°
